Location: Alsip
(41.6689°N, 87.7387°W)
Time: 14:46:50
(UTC+00:00)

Cosmos 1515 - Pass Details

Date: 14 July 2020
Orbit: 507 x 515 km, 82.5° (Epoch: 12 August)

Event Time Altitude Azimuth Distance (km) Brightness Sun altitude
Rises 07:30:05 0° 348° (NNW) 2,638 8.1 -23.2°
Reaches altitude 10° 07:32:14 10° 345° (NNW) 1,748 7.0 -23.0°
Enters shadow 07:35:27 53° 307° (NW) 640 4.1 -22.8°
